Location: ???
(35.5616°N, 139.7977°E)
Time: 03:05:12
(UTC+00:00)

Cosmos 1110 Rocket - Pass Details

Date: 17 November 2025
Orbit: 748 x 777 km, 74.0° (Epoch: 09 December)

Event Time Altitude Azimuth Distance (km) Brightness Sun altitude
Rises 19:37:16 0° 201° (SSW) 3,227 7.1 -20.7°
Reaches altitude 10° 19:39:38 10° 203° (SSW) 2,308 6.3 -20.2°
Maximum altitude 19:44:52 72° 288° (WNW) 814 3.9 -19.1°
Drops below altitude 10° 19:50:10 10° 13° (NNE) 2,331 6.5 -18.1°
Sets 19:52:34 0° 16° (NNE) 3,262 7.3 -17.6°
